Dayton, WY

2:55 PM MDT on August 30, 2015 (GMT -0600)
KWYSHERI2 | | Change Station
CLOSE
Current Station
Personal Weather Station
Location: Sheridan, WY
Elevation: 3828 ft
Nearby Weather Stations

Elev 3828 ft 44.81 °N, 106.98 °W | Updated 3 minutes ago

Partly Cloudy
Partly Cloudy
82.6 °F
Feels Like 81 °F
N
0.0
Wind Variable Wind from WNW
Gusts 0.0 mph

Today
High -- | Low -- °F
--% Chance of Precip.
Yesterday
High -- | Low -- °F
Precip. -- in
6:28 AM 7:49 PM
Full, 98% visible
Pressure 29.76 in
Visibility 10.0 miles
Clouds Clear
Heat Index 81 °F
Dew Point 46 °F
Humidity 28%
Rainfall 0.00 in
Snow Depth Not available.
UV 9 out of 12
Pollen 9.40 out of 12
Air Quality Not available.
Flu Activity Not available.
METAR KSHR 301953Z AUTO 34010KT 10SM CLR 29/09 A2989 RMK AO2 SLP078 T02940094
Pressure 29.76 in
Visibility 10.0 miles
Clouds Clear
Heat Index 81 °F
Dew Point 46 °F
Humidity 28%
Rainfall 0.00 in
Snow Depth Not available.
UV 9 out of 12
Pollen 9.40 out of 12
Air Quality Not available.
Flu Activity Not available.
METAR KSHR 301953Z AUTO 34010KT 10SM CLR 29/09 A2989 RMK AO2 SLP078 T02940094

10-Day Weather Forecast

×

Almanac

Astronomy

Aug. 30, 2015 Rise Set
Actual Time
Civil Twilight
Nautical Twilight
Astronomical Twilight
Moon
Length of Visible Light
Length of Day
Tomorrow will be .
, % of the Moon is Illuminated

Today's Extremes

State Highs State Lows

Community

WunderPhotos

Upload Photos

1,851,057 photos uploaded!

WunderBlogs® & News

Nearby

Air Quality

  Air Quality AQ Index Pollutant
Not available.

Snow Depth

Station Depth Elevation

Earthquake Activity

City Distance Mag. Time & Date
Minimum magnitude displayed is 2.5.

Coastal Water Temperatures

Place Temperature

Stations

Nearby Weather Stations

Station Location Temp. Windchill Dew Point Humidity Wind Precip. Elev Updated Type